Location: *
(39.6167°S, 171.5333°W)
Time: 19:59:37
(UTC+00:00)

USA 229 - Pass Details

Date: 13 May 2021
Orbit: 955 x 1257 km, 63.4° (Epoch: 17 June)

Event Time Altitude Azimuth Distance (km) Brightness Sun altitude
Exits shadow 16:51:34 - 209° (SSW) 2,969 5.7 -17.5°
Reaches altitude 10° 16:51:47 10° 209° (SSW) 2,890 5.6 -17.5°
Maximum altitude 16:58:30 64° 128° (SE) 1,113 4.0 -16.2°
Drops below altitude 10° 17:04:47 10° 46° (NE) 2,710 6.7 -15.0°
Sets 17:07:19 0° 42° (NE) 3,636 7.4 -14.6°
